Montpelier, VT

8:08 AM EST on December 08, 2019 (GMT -0500)
Knapp State

Weather History for KMPV - July, 2019

Change the Weather History Date:

Monday, July 29, 2019

  Actual Average Record
Temperature  
Mean Temperature 73 °F 67 °F  
Max Temperature 84 °F 78 °F 92 °F (1949)
Min Temperature 61 °F 56 °F 41 °F (1987)
Degree Days  
Heating Degree Days 0 1  
Month to date heating degree days 9 35  
Since 1 June heating degree days 153 156  
Since 1 July heating degree days 9 35  
Cooling Degree Days 8 3  
Month to date cooling degree days 120 91  
Year to date cooling degree days 140 154  
Since 1 June cooling degree days 139 144  
Growing Degree Days 23 (Base 50)    
Moisture  
Dew Point 64 °F    
Average Humidity 71    
Maximum Humidity 100    
Minimum Humidity 44    
Precipitation  
Precipitation 0.00 in 0.15 in 1.10 in (1957)
Month to date precipitation 4.53 3.78  
Year to date precipitation 29.46 20.49  
Sea Level Pressure  
Sea Level Pressure 29.98 in    
Wind  
Wind Speed 3 mph ()    
Max Wind Speed 12 mph    
Max Gust Speed 18 mph    
Visibility 9.1 miles    
Events      
T = Trace of Precipitation, MM = Missing Value Source: Averaged Metar Reports

Daily Weather History Graph

Daily Weather History Graph

Search for Another Location

Airport or City:

Astronomy

Jul. 29, 2019 Rise Set
Actual Time 5:34 AM EDT 8:18 PM EDT
Civil Twilight 5:00 AM EDT 8:51 PM EDT
Nautical Twilight 4:18 AM EDT 9:33 PM EDT
Astronomical Twilight 3:29 AM EDT 10:22 PM EDT
Moon 2:41 AM EDT (7/29) 6:21 PM EDT (7/29)
Length of Visible Light 15h 51m
Length of Day
14h 44m
Waning Crescent, 8% of the Moon is Illuminated
Jul 29
Waning Crescent
Jul 31
New
Aug 7
First Quarter
Aug 15
Full
Aug 23
Last Quarter

Hourly Weather History & Observations

Time (EDT) Temp. Heat Index Dew Point Humidity Pressure Visibility Wind Dir Wind Speed Gust Speed Precip Events Conditions
8:39 AM 66.9 °F - 66.9 °F 100% 30.02 in 1.5 mi NE 3.5 mph - N/A   Overcast
8:42 AM 66.9 °F - 66.9 °F 100% 30.02 in 3.0 mi Calm Calm - N/A   Mostly Cloudy
8:51 AM 68.0 °F - 68.0 °F 100% 30.01 in 10.0 mi Calm Calm - N/A   Scattered Clouds
9:51 AM 75.0 °F - 70.0 °F 84% 30.01 in 10.0 mi East 3.5 mph - N/A   Clear
10:51 AM 78.1 °F - 64.0 °F 62% 30.00 in 10.0 mi West 10.4 mph 18.4 mph N/A   Partly Cloudy
11:51 AM 79.0 °F - 64.0 °F 60% 30.00 in 10.0 mi Variable 4.6 mph - N/A   Mostly Cloudy
12:51 PM 81.0 °F 81.7 °F 61.0 °F 50% 29.99 in 10.0 mi Calm Calm - N/A   Partly Cloudy
1:51 PM 82.9 °F 83.2 °F 60.1 °F 46% 29.99 in 10.0 mi WNW 8.1 mph - N/A   Clear
2:51 PM 82.9 °F 83.2 °F 60.1 °F 46% 29.97 in 10.0 mi NW 6.9 mph - N/A   Partly Cloudy
3:51 PM 84.0 °F 84.0 °F 60.1 °F 44% 29.96 in 10.0 mi West 8.1 mph - N/A   Clear
4:51 PM 84.0 °F 84.4 °F 61.0 °F 46% 29.95 in 10.0 mi NNW 6.9 mph - N/A   Clear
5:51 PM 84.0 °F 84.0 °F 60.1 °F 44% 29.94 in 10.0 mi Calm Calm - N/A   Clear
6:51 PM 79.0 °F - 64.9 °F 62% 29.95 in 10.0 mi SW 3.5 mph - N/A   Clear
7:51 PM 75.9 °F - 66.9 °F 74% 29.96 in 10.0 mi SSW 3.5 mph - N/A   Clear
8:51 PM 72.0 °F - 66.0 °F 81% 29.97 in 10.0 mi SW 4.6 mph - N/A   Clear
9:51 PM 70.0 °F - 66.9 °F 90% 29.98 in 10.0 mi Calm Calm - N/A   Clear
10:51 PM 69.1 °F - 66.0 °F 90% 29.99 in 10.0 mi Calm Calm - N/A   Clear
11:51 PM 69.1 °F - 66.9 °F 93% 29.99 in 10.0 mi ENE 3.5 mph - N/A   Clear